User: anonymous   Login
Location: Peebles
(55.6412°N, 3.1714°W)
Time: 08:47:52
(UTC+01:00)
Language:

Oscar 17 - Orbit

View from above orbital plane
View from above orbital plane
View from above satellite
View from above satellite

Ground track
Ground track

The orbit data is extracted from the following two-line orbital elements,

1 20440U 90005E   22176.89368330  .00000085  00000-0  47392-4 0  9994
2 20440  98.8192 148.9203 0011479 140.1021 274.5783 14.33334424694216
Epoch (UTC): 25 June 2022 21:26:54
Eccentricity: 0.0011479
inclination: 98.8192°
perigee height: 772 km
apogee height: 789 km
right ascension of ascending node: 148.9203°
argument of perigee: 140.1021°
revolutions per day: 14.33334424
mean anomaly at epoch: 274.5783°
orbit number at epoch: 69421

The dashed part of the orbit path shows where the satellite is in the earth's shadow,  

DLR